Regional Weather Roundup
Issued by NWS Albany, NY

Home | Current Version | Previous Version | Text Only | Print | Product List | Glossary On
Versions: 1 2 3 4 5 6 7 8 9 10 11 12 13 14 15 16 17 18 19 20 21 22 23 24 25 26 27
000
ASUS41 KALY 161010
RWRALY

NEW YORK STATE HOURLY WEATHER ROUNDUP
NATIONAL WEATHER SERVICE ALBANY NY
500 AM EST MON JAN 16 2017

NOTE: "FAIR" INDICATES FEW OR NO CLOUDS BELOW 12,000 FEET WITH NO
SIGNIFICANT WEATHER AND/OR NO OBSTRUCTIONS TO VISIBILITY.

NYZ032-033-038>043-046>054-057>066-NYZ062>081-082-084-161100-
EAST


CITY           SKY/WX    TMP DP  RH WIND       PRES   REMARKS
ALBANY         CLEAR     15  11  83 CALM      30.43F
GLENS FALLS    CLEAR     11   5  77 CALM      30.42S
POUGHKEEPSIE   CLEAR     15  12  88 CALM      30.44S
MONTGOMERY     CLEAR     16  12  84 CALM      30.42S
WHITE PLAINS   CLEAR     22  15  75 NW3       30.41F
ISLIP          CLEAR     21  18  88 N3        30.43F
NEW YORK CITY  CLEAR     32  18  56 N3        30.44F
CENTRAL PARK   CLEAR     30  16  56 N5        30.45F WCI  25
$$

NYZ005>009-017-018-044>046-055-056-161100-
CENTRAL


CITY           SKY/WX    TMP DP  RH WIND       PRES   REMARKS
FULTON         CLEAR     20  17  88 CALM      30.37S
SYRACUSE       CLEAR     19  15  84 SE6       30.36F WCI  11
ROME           CLEAR     20  16  84 E6        30.41S WCI  12
ELMIRA         CLOUDY    12   7  80 CALM      30.38F
BINGHAMTON     CLEAR     19  15  84 S7        30.32F WCI  10
MONTICELLO     CLEAR     12  12 100 CALM      30.36F
$$

NYZ026>034-041>043-087-161100-
NORTH


CITY           SKY/WX    TMP DP  RH WIND       PRES   REMARKS
WATERTOWN      MOCLDY    28  21  75 S9        30.34F WCI  19
FORT DRUM      NOT AVBL
OGDENSBURG     CLOUDY    22  20  93 MISG      30.32S
MASSENA        CLOUDY    21  17  84 S3        30.34R
SARANAC LAKE   CLOUDY    11   7  84 MISG      30.25F
PLATTSBURGH    CLEAR     11   7  84 S5        30.35F WCI   3
$$

NYZ001>004-010>016-019>021-085-161100-
WEST


CITY           SKY/WX    TMP DP  RH WIND       PRES   REMARKS
NIAGARA FALLS  CLEAR     23  18  81 S6        30.34F WCI  16
BUFFALO        CLEAR     20  16  84 S5        30.35S WCI  13
DUNKIRK        CLEAR     26  19  74 SW6       30.36S WCI  19
JAMESTOWN      CLOUDY    18  14  86 S6        30.29S WCI   9
WELLSVILLE     CLOUDY    24  16  71 SW6       30.29F WCI  17
ROCHESTER      CLEAR     22  17  81 SW6       30.36F WCI  14
PENN YAN       CLEAR     22  17  81 SW8       30.34F WCI  12
$$

             KEY
       WCI = WIND CHILL INDEX
       VSB = VISIBILITY
       HX  = HEAT INDEX
$$




USA.gov is the U.S. government's official web portal to all federal, state and local government web resources and services.